Back to catalog

SL-8 R/B

AlivePO
NORAD 11239·ROCKET BODY·🇷🇺 Russia

Launched Jan 16, 1979 from Plesetsk Cosmodrome

Loading…

Next Passes (next 24 hours)

TLE

FreshSource: Space-Track

Epoch: Sep 14, 2026, 13:00 UTC

1 11239U 79003B   26257.54205655  .00000109  00000-0  96678-4 0  9999
2 11239  82.9346 102.0199 0039890 322.0106  66.3518 13.76130250391904

Track SL-8 R/B in real time with AllMySat

Download on the App Store